�N����,����,�~����,�C��,���x,�C��,����,���ϕ���,�ő�u�ԕ���,�ő厞����,���˗�,�I�_���x,�n�����x
"23/07/01","01:00",0.2,24.6,95.3,999.1,12.0,0.6,1.3,9.6,0.00,23.8,23.6
"23/07/01","02:00",0.0,23.5,95.7,999.1,132.3,0.8,3.5,191.8,0.00,22.8,23.6
"23/07/01","03:00",0.4,23.1,95.8,999.1,141.2,0.3,2.4,200.7,0.00,22.4,23.4
"23/07/01","04:00",0.2,23.2,96.0,998.6,347.2,0.6,1.3,123.3,0.00,22.6,23.4
"23/07/01","05:00",0.4,23.0,96.2,998.4,324.4,0.1,1.6,348.0,0.00,22.4,23.3
"23/07/01","06:00",5.2,22.9,96.3,997.9,198.1,0.1,1.2,336.2,0.00,22.3,23.3
"23/07/01","07:00",0.8,23.2,96.5,998.4,163.2,0.1,1.7,127.5,0.02,22.7,23.4
"23/07/01","08:00",0.0,23.3,96.5,999.1,174.7,0.3,2.5,200.7,0.11,22.8,23.3
"23/07/01","09:00",0.0,23.9,96.5,999.3,184.5,0.6,1.9,208.7,0.30,23.3,23.1
"23/07/01","10:00",0.0,24.3,96.4,999.8,335.4,1.2,2.0,342.7,0.47,23.7,23.2
"23/07/01","11:00",0.4,24.5,96.3,1000.0,350.4,0.2,2.1,338.9,0.38,23.9,23.2
"23/07/01","12:00",0.0,25.0,95.9,1000.3,24.3,0.5,2.4,205.4,0.64,24.3,23.1
"23/07/01","13:00",0.4,24.7,96.0,1000.0,49.5,0.3,1.1,47.7,0.22,24.1,23.4
"23/07/01","14:00",0.4,24.6,96.0,999.8,350.4,1.0,1.6,352.1,0.33,24.0,23.3
"23/07/01","15:00",0.2,24.8,95.4,999.8,194.5,1.5,2.8,188.8,0.62,24.1,23.4
"23/07/01","16:00",0.0,25.9,92.4,999.3,252.8,1.5,4.0,234.6,1.34,24.6,23.3
"23/07/01","17:00",0.0,24.6,91.5,999.8,195.8,1.6,4.0,200.2,0.21,23.2,23.5
"23/07/01","18:00",0.2,24.6,92.2,1000.0,85.6,0.2,2.5,193.8,0.08,23.3,23.5
"23/07/01","19:00",0.4,24.3,93.0,1000.3,356.3,0.8,2.1,117.5,0.01,23.1,23.5
"23/07/01","20:00",0.2,24.1,93.9,1000.3,234.9,0.1,1.2,346.8,0.00,23.1,23.2
"23/07/01","21:00",0.0,23.8,94.6,1001.2,325.6,0.7,1.6,340.1,0.00,22.9,23.3
"23/07/01","22:00",0.0,23.5,95.2,1001.5,333.5,0.5,1.7,337.3,0.00,22.7,23.4
"23/07/01","23:00",0.0,23.5,95.6,1001.2,340.5,0.6,1.3,336.6,0.00,22.8,23.4
"23/07/01","24:00",0.0,23.4,95.8,1001.5,284.9,0.2,1.1,336.7,0.00,22.7,23.2
"23/07/02","01:00",0.0,23.3,96.1,1001.7,290.0,0.8,1.2,336.1,0.00,22.7,23.1
"23/07/02","02:00",0.0,22.9,96.3,1001.9,329.3,1.0,1.3,324.8,0.00,22.3,23.2
"23/07/02","03:00",0.0,22.8,96.5,1001.9,314.7,0.7,1.8,319.2,0.00,22.3,23.0
"23/07/02","04:00",0.0,22.9,96.7,1002.2,336.1,0.8,1.6,337.0,0.00,22.4,22.8
"23/07/02","05:00",0.0,22.9,96.8,1002.4,279.7,0.3,1.8,349.4,0.00,22.4,22.9
"23/07/02","06:00",0.0,22.8,97.0,1003.6,324.2,0.8,1.7,329.8,0.00,22.3,23.0
"23/07/02","07:00",0.0,23.3,97.2,1004.1,336.4,1.0,2.7,330.0,0.07,22.9,22.8
"23/07/02","08:00",0.0,23.8,97.0,1004.3,329.3,1.2,2.8,319.2,0.44,23.3,22.7
"23/07/02","09:00",0.0,25.3,93.6,1004.1,8.3,0.8,2.8,338.1,1.02,24.2,22.8
"23/07/02","10:00",0.0,30.2,67.6,1004.8,99.6,0.7,3.5,338.0,2.85,23.6,23.1
"23/07/02","11:00",0.0,27.9,73.1,1003.4,254.4,1.7,4.1,233.6,1.51,22.7,23.0
"23/07/02","12:00",0.0,29.3,69.7,1004.3,308.1,1.6,4.5,313.3,2.04,23.2,23.2
"23/07/02","13:00",0.0,31.1,62.4,1004.5,286.1,1.2,3.7,309.2,2.63,23.1,23.3
"23/07/02","14:00",0.2,32.4,58.0,1004.3,213.7,1.2,4.7,240.2,3.14,23.1,23.7
"23/07/02","15:00",0.0,33.1,59.2,1003.6,272.9,1.6,4.8,324.4,2.88,24.1,23.9
"23/07/02","16:00",0.0,33.3,60.0,1002.4,171.7,1.3,3.7,239.4,2.42,24.5,24.0
"23/07/02","17:00",0.0,33.0,58.7,1002.6,182.2,1.1,4.8,229.3,1.57,23.9,24.1
"23/07/02","18:00",0.0,31.1,62.8,1001.9,212.1,2.2,4.5,207.1,0.66,23.2,24.3
"23/07/02","19:00",0.0,30.0,67.2,1001.2,284.2,0.6,4.3,213.9,0.20,23.3,24.3
"23/07/02","20:00",0.0,27.9,77.9,1002.2,283.5,0.7,2.6,345.0,0.02,23.7,24.4
"23/07/02","21:00",0.0,26.1,84.1,1003.1,285.6,0.8,1.9,329.5,0.00,23.2,24.2
"23/07/02","22:00",0.0,25.0,87.7,1003.6,325.5,1.6,2.5,332.3,0.00,22.9,24.1
"23/07/02","23:00",0.0,24.1,89.6,1004.5,303.8,0.8,2.6,341.0,0.00,22.3,24.0
"23/07/02","24:00",0.0,23.8,91.1,1004.5,334.2,1.1,1.8,343.1,0.00,22.3,23.9
"23/07/03","01:00",0.0,23.5,91.6,1004.1,318.4,0.6,2.7,318.7,0.00,22.1,23.8
"23/07/03","02:00",0.0,23.2,92.5,1004.1,328.2,1.6,3.4,331.4,0.00,22.0,23.7
"23/07/03","03:00",0.0,23.4,92.6,1003.8,340.5,1.2,3.5,330.2,0.00,22.2,23.4
"23/07/03","04:00",0.0,23.5,92.6,1004.3,1.7,1.1,3.2,331.9,0.00,22.3,23.5
"23/07/03","05:00",0.0,22.6,93.1,1004.1,313.9,1.0,2.2,339.9,0.00,21.5,23.1
"23/07/03","06:00",0.0,22.3,93.8,1003.8,293.8,1.0,1.6,346.0,0.00,21.3,23.2
"23/07/03","07:00",0.0,23.7,94.3,1004.3,329.9,0.7,2.0,319.8,0.10,22.8,23.2
"23/07/03","08:00",0.0,25.2,93.1,1004.1,335.8,1.2,2.9,347.7,0.45,24.0,23.0
"23/07/03","09:00",0.0,29.3,79.9,1004.1,168.2,0.6,2.4,346.5,1.42,25.5,23.1
"23/07/03","10:00",0.0,31.9,70.7,1004.1,126.3,0.8,1.9,230.9,2.11,26.0,23.2
"23/07/03","11:00",0.0,31.5,64.9,1004.1,235.5,1.1,6.5,212.6,2.42,24.1,23.3
"23/07/03","12:00",0.0,31.3,67.5,1002.9,169.0,2.2,4.8,167.7,2.54,24.6,23.6
"23/07/03","13:00",0.0,32.6,61.8,1001.7,235.8,0.8,4.2,186.4,1.88,24.4,23.9
"23/07/03","14:00",0.0,32.3,63.3,1001.2,239.2,0.7,4.4,203.1,1.43,24.5,23.9
"23/07/03","15:00",0.0,31.6,64.5,999.8,328.3,1.0,3.4,346.5,0.94,24.1,24.2
"23/07/03","16:00",0.0,31.1,67.3,998.9,347.5,0.8,2.6,354.8,0.72,24.4,24.3
"23/07/03","17:00",0.0,31.2,66.5,998.9,320.1,0.8,2.5,351.4,0.77,24.3,24.3
"23/07/03","18:00",0.0,31.7,61.9,998.9,261.7,1.1,3.5,347.3,0.82,23.5,24.3
"23/07/03","19:00",0.0,31.2,67.5,998.6,339.6,1.1,3.1,347.7,0.15,24.5,24.4
"23/07/03","20:00",0.0,28.0,77.7,997.4,338.1,2.0,3.6,322.7,0.03,23.8,24.5
"23/07/03","21:00",0.0,27.0,79.9,998.2,322.0,1.0,4.3,346.3,0.00,23.3,24.3
"23/07/03","22:00",0.0,25.9,81.8,999.3,338.0,0.7,3.9,330.9,0.00,22.6,24.2
"23/07/03","23:00",0.0,24.4,87.8,999.3,344.7,1.3,2.5,339.8,0.00,22.3,24.0
"23/07/03","24:00",0.0,24.0,89.6,999.3,336.4,1.8,4.0,337.8,0.00,22.2,23.9
"23/07/04","01:00",0.0,23.4,88.5,999.1,327.3,1.6,4.5,335.6,0.00,21.4,23.8
"23/07/04","02:00",0.0,22.5,90.0,999.1,324.2,1.7,3.1,328.3,0.00,20.8,23.6
"23/07/04","03:00",0.0,22.2,90.5,999.1,336.7,1.8,3.7,329.9,0.00,20.6,23.5
"23/07/04","04:00",0.0,21.8,91.0,998.6,333.4,1.5,4.0,337.9,0.00,20.3,23.3
"23/07/04","05:00",0.0,21.2,91.8,998.9,336.1,1.6,3.7,336.0,0.00,19.9,23.1
"23/07/04","06:00",0.0,21.3,92.0,999.8,337.3,2.2,5.0,345.5,0.00,20.0,23.1
"23/07/04","07:00",0.0,22.3,90.4,1000.3,323.1,1.8,4.4,344.8,0.09,20.7,22.9
"23/07/04","08:00",0.0,25.4,80.3,1000.3,309.2,0.7,4.0,345.5,0.61,21.8,22.9
"23/07/04","09:00",0.0,28.6,66.6,999.6,50.7,0.7,2.5,31.7,1.40,21.8,22.7
"23/07/04","10:00",0.0,29.3,64.3,1000.3,145.0,0.7,2.8,351.8,2.16,21.9,22.9
"23/07/04","11:00",0.0,30.5,57.2,1000.3,81.4,0.8,3.1,149.5,2.79,21.1,23.6
"23/07/04","12:00",0.0,31.3,56.3,999.1,349.1,1.2,3.5,333.1,3.19,21.6,23.8
"23/07/04","13:00",0.0,33.6,51.7,998.6,79.1,0.8,2.9,352.2,3.35,22.3,24.6
"23/07/04","14:00",0.0,34.1,49.9,998.6,255.1,1.5,4.8,222.5,3.27,22.2,24.7
"23/07/04","15:00",0.0,34.8,52.7,998.2,279.3,1.2,4.4,328.1,2.87,23.7,25.3
"23/07/04","16:00",0.0,34.6,44.8,997.2,242.7,1.8,5.1,209.7,2.34,20.9,25.6
"23/07/04","17:00",0.0,35.1,42.4,997.0,245.0,1.2,5.0,219.7,1.63,20.5,25.6
"23/07/04","18:00",0.0,33.5,51.7,996.0,331.0,1.7,3.4,243.0,0.63,22.2,25.6
"23/07/04","19:00",0.0,32.4,58.5,996.0,333.8,1.1,2.9,349.8,0.31,23.3,25.6
"23/07/04","20:00",0.0,29.9,68.3,994.8,359.0,0.8,2.9,351.2,0.05,23.5,25.4
"23/07/04","21:00",0.0,27.5,75.2,996.3,329.0,1.3,2.8,343.4,0.00,22.8,25.5
"23/07/04","22:00",0.0,26.3,78.1,997.2,323.0,1.0,2.7,351.8,0.00,22.2,25.0
"23/07/04","23:00",0.0,26.5,71.0,997.7,8.0,1.0,2.6,358.2,0.00,20.9,24.9
"23/07/04","24:00",0.0,24.6,79.7,997.7,345.0,1.0,2.5,354.2,0.00,20.9,24.5
"23/07/05","01:00",0.0,23.6,84.0,997.9,334.9,1.1,2.2,339.5,0.00,20.8,24.2
"23/07/05","02:00",0.0,23.2,85.4,998.2,274.8,1.1,2.5,322.9,0.00,20.7,24.2
"23/07/05","03:00",0.0,22.7,86.7,997.4,273.3,0.8,1.9,283.5,0.00,20.4,23.8
"23/07/05","04:00",0.0,22.7,87.8,997.0,287.0,1.1,1.9,335.5,0.00,20.6,23.6
"23/07/05","05:00",0.0,22.9,88.1,996.7,324.4,1.0,2.2,306.2,0.00,20.9,23.6
"23/07/05","06:00",0.0,23.1,89.3,997.0,287.9,0.7,1.9,321.9,0.00,21.3,23.5
"23/07/05","07:00",0.0,23.7,89.4,997.2,294.6,0.5,1.4,326.6,0.00,21.9,23.3
"23/07/05","08:00",0.0,24.5,89.4,996.3,338.3,1.0,1.3,341.7,0.01,22.7,23.3
"23/07/05","09:00",0.0,25.5,87.4,996.3,328.9,1.0,1.9,345.7,0.24,23.3,23.4
"23/07/05","10:00",0.0,27.0,81.0,995.1,192.1,1.1,2.2,204.1,0.53,23.5,23.7
"23/07/05","11:00",0.0,27.6,75.4,994.8,145.3,1.8,4.5,132.4,0.65,22.9,23.8
"23/07/05","12:00",0.0,27.4,73.7,994.4,132.4,1.3,5.0,116.9,0.38,22.3,23.7
"23/07/05","13:00",0.0,28.3,72.9,993.9,55.7,0.7,3.7,152.1,0.55,23.0,23.6
"23/07/05","14:00",0.4,26.2,81.1,994.1,120.7,1.2,3.5,142.8,0.66,22.7,23.7
"23/07/05","15:00",1.0,24.7,85.5,994.6,151.3,1.3,4.7,153.2,0.25,22.1,23.7
"23/07/05","16:00",1.8,23.6,89.6,994.1,50.5,0.6,1.9,1.9,0.18,21.8,23.7
"23/07/05","17:00",1.2,23.0,91.7,993.9,83.2,0.6,2.0,103.3,0.16,21.6,23.7
"23/07/05","18:00",2.4,22.8,92.7,993.7,314.7,0.6,1.7,12.4,0.03,21.6,23.7
"23/07/05","19:00",4.8,22.6,93.6,993.9,211.7,0.3,2.2,342.0,0.02,21.6,23.3
"23/07/05","20:00",0.2,22.8,94.3,993.7,298.5,0.8,1.9,334.1,0.00,21.9,23.4
"23/07/05","21:00",4.2,22.9,94.8,994.4,320.2,0.8,2.4,238.9,0.00,22.1,23.4
"23/07/05","22:00",0.2,23.0,95.3,994.4,314.5,0.6,1.7,343.7,0.00,22.2,23.3
"23/07/05","23:00",0.0,23.2,95.6,995.1,179.1,0.3,1.6,341.7,0.00,22.5,23.3
"23/07/05","24:00",0.0,23.1,95.9,995.3,281.1,0.6,1.4,341.2,0.00,22.4,23.2
"23/07/06","01:00",0.0,23.3,96.1,995.8,258.4,0.5,2.1,326.8,0.00,22.7,23.3
"23/07/06","02:00",0.0,22.7,96.3,995.8,335.2,0.8,1.3,340.0,0.00,22.1,23.2
"23/07/06","03:00",0.0,22.3,96.6,995.8,328.9,1.0,1.4,317.0,0.00,21.8,23.2
"23/07/06","04:00",0.0,22.0,96.9,996.5,325.6,0.6,1.4,326.0,0.00,21.5,23.0
"23/07/06","05:00",0.0,21.7,97.2,996.5,312.7,0.7,1.4,0.7,0.00,21.3,23.0
"23/07/06","06:00",0.0,21.6,97.4,997.4,285.4,0.7,1.6,337.1,0.00,21.2,23.0
"23/07/06","07:00",0.0,22.7,97.3,997.9,284.5,0.6,1.4,347.0,0.13,22.3,22.5
"23/07/06","08:00",0.0,24.0,96.9,998.4,169.2,0.3,1.3,341.8,0.62,23.5,22.8
"23/07/06","09:00",0.0,25.8,96.5,997.9,290.7,0.5,2.2,232.0,0.83,25.2,23.0
"23/07/06","10:00",0.0,27.8,90.3,999.3,135.4,0.8,2.0,21.1,2.21,26.1,23.2
"23/07/06","11:00",0.0,30.4,72.0,999.8,156.1,1.7,4.2,198.9,2.74,24.8,23.4
"23/07/06","12:00",0.0,31.5,66.8,999.6,207.6,1.3,4.3,210.4,2.63,24.6,23.8
"23/07/06","13:00",0.0,32.6,65.3,999.1,164.9,1.7,5.1,206.6,2.85,25.3,24.4
"23/07/06","14:00",0.0,33.5,59.0,999.8,201.4,1.2,4.5,189.8,2.96,24.4,24.6
"23/07/06","15:00",0.0,34.3,50.9,999.6,316.3,0.7,3.4,205.7,2.34,22.7,24.8
"23/07/06","16:00",0.0,34.7,50.4,999.6,277.6,1.2,4.0,213.5,2.04,22.9,25.2
"23/07/06","17:00",0.0,34.0,55.3,999.6,189.8,0.7,3.4,234.8,1.35,23.8,25.5
"23/07/06","18:00",0.0,32.8,61.2,998.6,346.7,1.2,3.7,335.4,0.67,24.4,25.4
"23/07/06","19:00",0.0,31.2,65.8,998.4,25.4,0.7,3.3,315.8,0.30,24.1,25.6
"23/07/06","20:00",0.0,27.9,76.3,998.2,314.9,0.8,1.8,334.9,0.02,23.4,25.3
"23/07/06","21:00",0.0,26.2,82.4,999.6,310.6,1.0,2.5,328.1,0.00,23.0,25.1
"23/07/06","22:00",0.0,25.2,85.4,1000.5,296.5,0.8,1.9,302.9,0.00,22.6,24.8
"23/07/06","23:00",0.0,24.4,87.1,1000.8,329.7,0.6,2.0,304.2,0.00,22.2,24.7
"23/07/06","24:00",0.0,23.8,89.5,1001.2,312.0,1.0,1.8,324.0,0.00,22.0,24.5
"23/07/07","01:00",0.0,22.9,91.0,1001.7,328.4,1.3,1.9,343.3,0.00,21.4,24.1
"23/07/07","02:00",0.0,22.5,92.5,1001.5,293.9,1.1,1.9,317.2,0.00,21.3,24.0
"23/07/07","03:00",0.0,22.1,92.8,1001.7,318.0,1.0,1.9,317.4,0.00,20.9,23.7
"23/07/07","04:00",0.0,21.2,93.5,1001.9,304.7,1.0,1.9,321.2,0.00,20.1,23.7
"23/07/07","05:00",0.0,21.2,94.2,1002.2,302.5,1.2,2.6,320.0,0.00,20.3,23.5
"23/07/07","06:00",0.0,20.9,94.0,1002.2,319.2,1.0,2.9,333.6,0.00,19.9,23.2
"23/07/07","07:00",0.0,21.9,94.2,1002.2,326.8,1.0,1.6,319.3,0.06,21.0,23.0
"23/07/07","08:00",0.0,25.8,89.1,1002.4,42.8,0.3,1.4,335.6,0.59,23.9,22.9
"23/07/07","09:00",0.0,29.1,68.3,1002.4,16.2,0.8,1.9,9.5,1.35,22.7,23.0
"23/07/07","10:00",0.0,31.1,63.0,1003.4,307.5,0.6,1.9,341.6,1.83,23.3,23.0
"23/07/07","11:00",0.0,31.8,55.7,1004.1,136.7,1.0,3.5,188.2,2.24,21.9,23.4
"23/07/07","12:00",0.0,33.4,55.4,1003.1,135.9,1.5,3.3,220.3,2.68,23.3,23.9
"23/07/07","13:00",0.0,33.6,54.5,1001.7,122.6,1.1,5.9,198.4,2.50,23.2,24.3
"23/07/07","14:00",0.0,35.4,46.5,1002.4,136.0,1.5,4.4,133.4,3.10,22.2,24.7
"23/07/07","15:00",0.0,35.9,43.4,1002.4,251.4,1.3,4.4,229.0,2.78,21.6,25.1
"23/07/07","16:00",0.0,34.1,50.0,1001.7,237.3,1.7,5.7,235.6,1.67,22.2,25.5
"23/07/07","17:00",0.0,31.9,61.8,1000.8,276.6,1.3,5.6,217.8,0.75,23.7,25.4
"23/07/07","18:00",0.0,30.0,71.3,1000.0,293.3,1.7,5.0,345.1,0.29,24.3,25.4
"23/07/07","19:00",0.0,29.2,74.7,1000.8,231.9,1.2,4.3,237.3,0.05,24.3,25.4
"23/07/07","20:00",2.0,26.9,85.0,1001.2,325.1,0.3,2.9,237.9,0.00,24.2,25.3
"23/07/07","21:00",0.0,26.2,90.0,1001.7,330.4,0.5,1.9,358.9,0.00,24.5,25.1
"23/07/07","22:00",3.0,25.8,91.7,1001.9,169.0,1.2,2.8,213.2,0.00,24.4,25.1
"23/07/07","23:00",0.0,25.9,92.0,1001.7,319.8,0.6,3.1,192.2,0.00,24.5,24.7
"23/07/07","24:00",0.0,25.5,92.9,1001.9,308.5,0.8,1.6,324.0,0.00,24.3,24.8
"23/07/08","01:00",0.0,25.3,93.8,1001.2,286.0,1.0,2.2,354.2,0.00,24.3,24.7
"23/07/08","02:00",0.0,25.2,94.4,1001.2,346.6,0.8,1.8,336.2,0.00,24.3,24.6
"23/07/08","03:00",0.0,24.9,94.9,1000.5,308.5,0.8,2.6,340.3,0.00,24.1,24.6
"23/07/08","04:00",0.0,24.7,95.2,1000.5,304.9,1.0,2.0,346.1,0.00,23.9,24.4
"23/07/08","05:00",0.0,24.8,95.4,1000.5,297.7,0.6,1.4,342.9,0.00,24.1,24.5
"23/07/08","06:00",0.0,24.8,95.6,1000.8,329.4,0.8,1.9,334.2,0.00,24.1,24.4
"23/07/08","07:00",0.0,25.0,95.8,1001.0,317.1,0.8,1.7,323.5,0.02,24.3,24.2
"23/07/08","08:00",0.0,25.7,95.7,1001.0,318.8,0.8,1.7,323.4,0.10,25.0,24.2
"23/07/08","09:00",0.0,26.5,95.1,1001.5,344.9,0.8,2.1,343.4,0.27,25.7,24.2
"23/07/08","10:00",0.0,26.9,92.6,1001.0,285.0,1.0,3.4,244.3,0.25,25.6,24.6
"23/07/08","11:00",0.0,28.3,84.1,1001.0,340.1,0.6,4.1,327.2,0.25,25.4,24.4
"23/07/08","12:00",0.0,28.8,81.6,1000.8,251.7,1.5,5.5,352.7,0.30,25.4,24.4
"23/07/08","13:00",0.0,29.2,79.2,999.8,311.9,1.8,4.5,308.6,0.64,25.3,24.3
"23/07/08","14:00",0.0,29.4,79.0,1000.0,238.8,1.3,4.4,326.9,0.52,25.4,24.5
"23/07/08","15:00",0.0,29.0,79.3,999.3,308.5,1.0,3.5,353.1,0.42,25.1,24.7
"23/07/08","16:00",0.0,28.7,81.4,999.6,338.8,0.7,3.9,338.8,0.18,25.2,24.6
"23/07/08","17:00",0.0,28.8,81.7,999.3,353.1,1.5,3.7,349.4,0.21,25.4,24.6
"23/07/08","18:00",0.0,29.2,79.6,998.6,314.9,1.2,4.4,0.8,0.22,25.3,24.6
"23/07/08","19:00",0.0,28.5,80.3,999.3,337.3,1.6,3.6,355.2,0.03,24.8,24.6
"23/07/08","20:00",0.0,28.3,80.6,999.8,341.0,1.0,2.9,352.4,0.00,24.7,24.7
"23/07/08","21:00",0.0,28.0,80.5,999.8,321.0,1.1,2.9,244.7,0.00,24.4,24.4
"23/07/08","22:00",0.0,27.2,84.1,999.8,313.9,0.6,1.9,317.1,0.00,24.3,24.4
"23/07/08","23:00",0.0,27.9,82.0,1000.3,294.5,2.0,5.9,236.9,0.00,24.6,24.7
"23/07/08","24:00",0.0,27.2,84.1,1001.0,256.7,1.2,5.7,233.7,0.00,24.3,24.5
"23/07/09","01:00",0.0,26.6,84.9,1000.5,190.9,0.7,4.2,252.4,0.00,23.9,24.3
"23/07/09","02:00",0.0,25.8,87.5,1000.5,334.1,1.0,1.7,327.0,0.00,23.6,24.3
"23/07/09","03:00",0.0,26.0,87.3,1000.8,319.0,0.8,2.1,312.9,0.00,23.8,24.3
"23/07/09","04:00",0.6,25.7,90.4,1000.8,339.6,0.7,2.5,336.8,0.00,24.0,24.2
"23/07/09","05:00",1.6,25.0,92.4,1000.8,325.6,0.8,2.6,311.3,0.00,23.7,24.0
"23/07/09","06:00",0.2,24.8,93.5,1001.5,337.1,0.7,2.0,336.5,0.00,23.7,24.1
"23/07/09","07:00",3.0,24.5,94.3,1001.9,339.6,0.7,2.4,315.1,0.00,23.6,24.0
"23/07/09","08:00",0.0,25.0,94.7,1001.7,302.3,0.5,2.0,341.0,0.19,24.1,24.2
"23/07/09","09:00",0.0,25.9,94.5,1002.2,204.5,0.5,1.7,191.8,0.53,25.0,23.9
"23/07/09","10:00",0.4,26.5,94.3,1002.2,346.8,0.3,1.6,336.7,0.48,25.5,24.2
"23/07/09","11:00",0.2,26.6,93.6,1001.2,333.1,0.8,1.9,343.7,0.88,25.5,24.2
"23/07/09","12:00",0.2,27.0,92.6,1001.2,172.8,0.2,1.7,341.1,0.47,25.7,24.3
"23/07/09","13:00",3.4,26.8,93.0,1001.2,177.5,0.5,2.2,183.7,0.36,25.6,24.4
"23/07/09","14:00",0.4,27.6,93.3,1001.2,47.3,0.2,1.4,346.1,0.47,26.5,24.6
"23/07/09","15:00",0.0,28.1,91.8,1001.0,2.9,1.0,3.7,330.6,1.32,26.7,24.5
"23/07/09","16:00",0.2,27.6,87.3,1001.2,319.2,1.8,3.5,280.6,0.56,25.3,24.8
"23/07/09","17:00",6.8,27.0,91.1,999.8,49.8,0.3,5.8,327.8,0.43,25.5,24.7
"23/07/09","18:00",0.0,27.1,92.2,1000.5,110.5,0.3,2.0,23.2,0.25,25.8,24.7
"23/07/09","19:00",0.0,27.0,92.4,1000.5,295.4,0.5,2.8,229.6,0.31,25.7,24.9
"23/07/09","20:00",0.0,26.4,91.9,1001.2,351.7,0.6,2.0,236.9,0.07,25.0,24.8
"23/07/09","21:00",0.0,25.7,92.8,1001.9,299.5,0.7,1.9,342.3,0.00,24.5,24.7
"23/07/09","22:00",0.0,25.4,93.6,1002.2,313.2,1.1,2.1,301.5,0.00,24.3,24.5
"23/07/09","23:00",0.0,25.3,94.3,1002.4,249.7,0.7,2.1,238.7,0.00,24.4,24.7
"23/07/09","24:00",0.0,25.5,94.7,1002.4,307.7,1.0,3.2,339.7,0.00,24.6,24.4
"23/07/10","01:00",0.0,25.5,94.8,1002.4,344.5,0.7,1.8,333.2,0.00,24.6,24.3
"23/07/10","02:00",0.0,25.4,94.9,1002.4,334.6,0.8,1.4,321.8,0.00,24.6,24.4
"23/07/10","03:00",0.0,25.2,95.2,1002.2,326.7,0.8,1.4,323.1,0.00,24.4,24.5
"23/07/10","04:00",0.0,24.8,95.5,1001.9,344.0,0.3,1.3,314.5,0.00,24.1,24.3
"23/07/10","05:00",0.0,24.8,95.6,1001.9,329.6,0.6,1.4,343.7,0.00,24.1,24.3
"23/07/10","06:00",0.0,24.8,95.9,1002.9,310.2,0.7,1.4,342.4,0.00,24.1,24.4
"23/07/10","07:00",0.0,25.5,95.9,1002.9,346.2,0.8,1.7,14.3,0.07,24.8,24.2
"23/07/10","08:00",0.0,26.4,95.9,1003.1,295.7,0.5,1.7,334.6,0.15,25.7,24.4
"23/07/10","09:00",0.0,27.5,95.5,1002.9,331.2,0.5,1.4,171.0,0.47,26.8,24.3
"23/07/10","10:00",0.0,28.9,92.9,1002.9,149.3,0.5,1.4,352.1,0.82,27.7,24.2
"23/07/10","11:00",0.0,31.5,77.7,1003.8,29.1,1.0,2.1,7.2,1.17,27.2,24.5
"23/07/10","12:00",0.0,31.6,74.3,1003.4,206.2,1.3,3.1,231.0,1.02,26.5,24.7
"23/07/10","13:00",0.0,31.5,71.5,1003.4,263.7,1.5,4.1,346.8,1.34,25.8,24.8
"23/07/10","14:00",0.0,33.5,70.0,1003.8,192.7,1.5,6.0,208.1,2.03,27.3,25.1
"23/07/10","15:00",0.0,30.9,70.9,1002.4,196.5,3.1,7.0,199.0,1.61,25.0,25.3
"23/07/10","16:00",7.6,26.4,87.8,1000.3,83.2,0.7,5.5,240.9,0.00,24.3,25.3
"23/07/10","17:00",0.2,26.1,90.3,1001.0,143.4,1.2,3.9,184.6,0.50,24.4,25.5
"23/07/10","18:00",0.0,27.5,89.9,1001.0,259.4,1.0,2.8,341.2,0.62,25.7,25.2
"23/07/10","19:00",0.0,27.7,84.0,1002.2,313.7,1.0,2.9,245.5,0.13,24.8,25.3
"23/07/10","20:00",0.0,26.0,86.0,1003.4,332.8,1.2,2.7,323.3,0.01,23.5,25.2
"23/07/10","21:00",0.0,24.4,90.4,1003.8,352.0,0.6,26.3,183.4,0.00,22.8,25.1
"23/07/10","22:00",0.0,24.1,92.0,1004.3,334.9,0.6,1.8,332.6,0.00,22.8,24.6
"23/07/10","23:00",0.0,23.4,92.8,1005.0,253.0,0.6,1.6,322.7,0.00,22.2,24.7
"23/07/10","24:00",0.0,23.1,93.3,1005.0,297.4,1.1,2.0,234.0,0.00,22.0,24.5
"23/07/11","01:00",0.0,22.8,94.0,1005.0,292.0,0.8,2.2,342.4,0.00,21.8,24.3
"23/07/11","02:00",0.0,22.8,94.6,1005.2,331.2,1.1,2.1,345.5,0.00,21.9,24.3
"23/07/11","03:00",0.0,22.4,94.9,1005.0,325.4,1.0,2.5,325.3,0.00,21.6,24.2
"23/07/11","04:00",0.0,22.3,95.3,1005.2,320.6,1.1,2.0,335.0,0.00,21.6,24.0
"23/07/11","05:00",0.0,22.2,95.6,1005.0,298.8,0.8,1.6,325.0,0.00,21.5,23.9
"23/07/11","06:00",0.0,22.4,95.9,1005.2,293.8,1.1,1.8,340.1,0.00,21.8,23.6
"23/07/11","07:00",0.0,25.9,95.2,1004.8,157.6,0.2,1.2,323.5,0.41,25.1,23.8
"23/07/11","08:00",0.0,27.1,90.5,1004.8,344.9,0.5,1.9,347.1,0.89,25.4,23.7
"23/07/11","09:00",0.0,30.0,76.5,1006.7,167.6,1.6,3.1,120.7,1.87,25.5,23.9
"23/07/11","10:00",0.0,30.5,68.8,1006.0,299.9,1.5,3.9,325.6,1.93,24.2,24.0
"23/07/11","11:00",0.2,31.9,66.0,1005.0,109.1,0.8,3.5,343.1,1.36,24.8,24.5
"23/07/11","12:00",0.0,32.8,62.7,1004.8,355.8,1.1,4.9,345.9,2.02,24.8,24.7
"23/07/11","13:00",0.0,33.4,60.2,1004.5,231.0,2.2,5.0,211.8,2.30,24.7,24.7
"23/07/11","14:00",0.0,33.7,56.4,1004.8,267.6,2.0,7.4,235.8,2.90,23.9,25.3
"23/07/11","15:00",0.0,34.3,53.2,1003.4,239.6,2.2,5.6,207.8,2.58,23.4,25.8
"23/07/11","16:00",0.0,33.8,54.2,1003.4,286.4,2.0,5.5,338.3,1.89,23.3,25.9
"23/07/11","17:00",0.0,32.8,54.7,1002.9,270.7,1.8,5.6,237.2,0.98,22.5,26.0
"23/07/11","18:00",0.0,31.4,60.1,1001.9,258.0,1.1,4.5,319.1,0.19,22.8,25.9
"23/07/11","19:00",0.0,29.5,68.5,1001.0,238.5,0.6,4.1,206.8,0.00,23.1,25.7
"23/07/11","20:00",0.0,27.2,80.5,1002.4,343.8,0.8,2.4,242.6,0.00,23.6,25.6
"23/07/11","21:00",0.0,26.1,83.7,1003.1,311.5,0.8,2.0,343.8,0.00,23.2,25.5
"23/07/11","22:00",0.0,25.1,86.5,1003.6,329.8,0.8,2.0,326.2,0.00,22.7,25.3
"23/07/11","23:00",0.0,24.8,88.2,1003.6,309.1,1.2,2.4,322.7,0.00,22.8,24.9
"23/07/11","24:00",0.0,24.3,89.3,1003.4,295.9,1.0,2.1,346.4,0.00,22.5,25.1
"23/07/12","01:00",0.0,23.9,90.3,1003.4,289.6,1.0,2.2,321.9,0.00,22.3,24.5
"23/07/12","02:00",0.0,23.3,91.2,1002.9,303.4,0.7,1.8,330.7,0.00,21.8,24.5
"23/07/12","03:00",0.0,23.2,92.4,1002.9,293.5,1.0,1.9,333.4,0.00,21.9,24.4
"23/07/12","04:00",0.0,23.0,93.2,1002.9,301.6,0.8,2.0,319.6,0.00,21.9,24.2
"23/07/12","05:00",0.0,22.7,93.9,1002.9,317.9,1.1,1.7,315.2,0.00,21.7,24.0
"23/07/12","06:00",0.0,23.7,94.3,1003.6,344.3,0.7,1.7,329.6,0.03,22.8,23.8
"23/07/12","07:00",0.0,27.4,92.1,1003.1,13.3,0.2,1.8,343.8,0.47,26.0,23.7
"23/07/12","08:00",0.0,30.4,75.3,1003.8,73.5,0.7,2.4,2.8,1.13,25.6,24.0
"23/07/12","09:00",0.0,30.9,72.6,1003.8,51.7,0.5,2.4,354.9,1.04,25.4,24.1
"23/07/12","10:00",0.0,31.2,72.6,1003.4,267.0,1.5,4.0,205.8,1.29,25.7,24.2
"23/07/12","11:00",0.0,32.9,65.6,1004.3,227.9,2.1,6.0,210.9,2.45,25.6,24.6
"23/07/12","12:00",0.0,33.4,61.8,1003.8,280.6,1.6,5.5,209.7,2.69,25.1,24.9
"23/07/12","13:00",0.0,32.6,64.2,1002.4,233.0,2.2,7.1,235.3,2.54,25.0,25.3
"23/07/12","14:00",0.0,32.1,62.5,1001.7,243.9,1.6,6.0,340.6,2.01,24.1,25.6
"23/07/12","15:00",0.0,31.1,68.4,1001.2,223.6,2.1,5.0,212.3,1.31,24.6,25.7
"23/07/12","16:00",5.2,24.0,86.4,1001.2,309.5,1.6,8.9,332.3,0.04,21.6,25.6
"23/07/12","17:00",0.2,25.8,86.8,1002.2,31.7,0.7,3.3,346.4,0.88,23.5,25.5
"23/07/12","18:00",0.2,25.7,88.9,1001.5,245.8,0.3,2.1,3.5,0.26,23.8,25.5
"23/07/12","19:00",0.0,24.8,90.8,1002.4,338.7,0.6,2.1,332.9,0.05,23.2,25.3
"23/07/12","20:00",0.0,24.5,92.4,1002.6,333.0,1.1,2.2,339.6,0.00,23.2,25.0
"23/07/12","21:00",0.0,24.2,93.4,1003.4,316.8,1.2,1.9,326.5,0.00,23.1,25.0
"23/07/12","22:00",0.0,23.8,94.0,1003.1,304.6,0.8,1.9,327.7,0.00,22.8,24.9
"23/07/12","23:00",0.0,24.0,94.5,1003.1,296.8,1.0,1.8,346.0,0.00,23.1,24.7
"23/07/12","24:00",0.0,23.8,94.8,1002.9,273.6,0.5,1.7,341.2,0.00,23.0,24.6
"23/07/13","01:00",0.0,23.6,95.2,1002.6,308.5,1.0,2.0,331.5,0.00,22.8,24.5
"23/07/13","02:00",0.0,23.4,95.5,1001.7,304.7,0.8,1.8,336.3,0.00,22.7,24.5
"23/07/13","03:00",0.0,23.5,95.8,1001.9,347.3,0.8,2.2,337.6,0.00,22.8,24.2
"23/07/13","04:00",0.0,23.6,96.0,1001.9,336.2,0.8,2.0,358.6,0.00,23.0,24.3
"23/07/13","05:00",0.0,23.5,96.2,1002.2,300.9,0.5,2.4,335.6,0.00,22.9,24.2
"23/07/13","06:00",0.0,23.7,96.3,1002.6,291.5,0.7,1.7,320.1,0.00,23.1,23.9
"23/07/13","07:00",0.4,24.3,96.3,1003.1,310.8,0.8,2.0,339.7,0.00,23.7,23.9
"23/07/13","08:00",1.6,24.4,96.3,1002.9,158.4,0.2,1.7,350.2,0.02,23.8,24.0
"23/07/13","09:00",2.6,24.2,96.3,1003.6,325.5,0.5,1.1,345.3,0.00,23.6,24.1
"23/07/13","10:00",0.4,24.5,96.4,1003.6,344.7,0.6,1.6,345.5,0.10,23.9,23.9
"23/07/13","11:00",0.0,25.3,96.4,1002.9,250.9,0.7,1.6,263.3,0.37,24.7,24.2
"23/07/13","12:00",0.0,26.8,95.5,1002.4,138.8,0.5,1.6,252.7,0.97,26.1,24.2
"23/07/13","13:00",0.0,27.0,94.7,1002.4,126.6,0.3,2.1,350.0,0.62,26.1,24.3
"23/07/13","14:00",0.0,27.5,89.7,1002.2,309.1,1.1,3.9,320.3,0.55,25.7,24.2
"23/07/13","15:00",0.0,27.5,86.9,1002.2,353.4,0.6,2.9,343.0,0.30,25.2,24.4
"23/07/13","16:00",0.6,26.5,90.5,1002.4,279.4,0.5,1.8,330.5,0.26,24.9,24.5
"23/07/13","17:00",1.4,25.9,92.1,1003.4,272.2,0.6,1.7,238.9,0.06,24.6,24.3
"23/07/13","18:00",10.2,24.9,93.2,1003.4,74.2,0.3,2.0,2.1,0.00,23.8,24.5
"23/07/13","19:00",1.8,24.4,94.2,1003.6,266.5,0.3,1.4,359.4,0.00,23.4,24.4
"23/07/13","20:00",0.8,24.4,94.8,1004.5,346.0,0.3,1.4,344.3,0.00,23.6,24.5
"23/07/13","21:00",0.0,24.0,95.4,1004.5,347.0,0.5,2.4,344.2,0.00,23.3,24.3
"23/07/13","22:00",0.0,23.8,95.8,1005.0,342.8,0.7,2.4,345.0,0.00,23.1,24.3
"23/07/13","23:00",0.2,23.6,96.1,1005.0,270.8,0.7,1.4,333.6,0.00,23.0,24.1
"23/07/13","24:00",0.0,23.3,96.5,1004.5,304.2,1.0,2.0,341.0,0.00,22.8,24.2
"23/07/14","01:00",0.0,23.0,96.7,1004.3,297.0,0.6,1.8,332.0,0.00,22.5,24.0
"23/07/14","02:00",0.0,22.9,96.8,1004.3,312.2,0.7,1.8,329.0,0.00,22.4,24.0
"23/07/14","03:00",0.0,23.1,97.0,1004.1,342.7,0.7,1.7,345.8,0.00,22.6,24.0
"23/07/14","04:00",0.0,22.8,97.1,1004.1,281.6,0.6,1.7,325.7,0.00,22.4,23.8